OE5RPP Weather Reports


time (UTC)temp
F
wind
direction
speed
knots
gust
knots
rain 1hr
in
rain 24hr
in
rain mn
in
humidity
%
barometer
mb
20260507105157 60 292 5.2 2.6 0.00 0.00 0.00 22 1016.9
20260507104156 59 270 5.2 4.3 0.00 0.00 0.00 22 1016.9
20260507103158 58 315 4.3 6.1 0.00 0.00 0.00 23 1016.9
20260507102131 59 270 5.2 2.6 0.00 0.00 0.00 22 1016.9
20260507101131 58 270 1.7 2.6 0.00 0.00 0.00 23 1016.9
20260507100136 58 292 5.2 5.2 0.00 0.00 0.00 23 1016.9
20260507095132 59 180 3.5 3.5 0.00 0.00 0.00 22 1016.9
20260507094136 58 0 3.5 3.5 0.00 0.00 0.00 23 1016.9
20260507093131 57 247 7.8 3.5 0.00 0.00 0.00 23 1016.9
20260507092136 58 225 4.3 4.3 0.00 0.00 0.00 23 1016.9
20260507090132 57 270 5.2 2.6 0.00 0.00 0.00 23 1016.9
20260507085136 58 180 3.5 4.3 0.00 0.00 0.00 23 1016.9
20260507081135 58 292 2.6 2.6 0.00 0.00 0.00 23 1015.9
20260507074133 58 180 0.9 0.0 0.00 0.00 0.00 30 1015.9
20260507073133 58 202 4.3 5.2 0.00 0.00 0.00 32 1015.9
20260507072132 57 270 1.7 0.0 0.00 0.00 0.00 32 1015.9
20260507070131 51 180 3.5 4.3 0.00 0.16 0.00 60 1015.9
20260507063136 51 180 3.5 4.3 0.00 0.16 0.00 60 1015.9
20260507062134 51 180 3.5 4.3 0.00 0.16 0.00 60 1015.9
20260507060136 51 180 3.5 4.3 0.00 0.16 0.00 60 1015.9
20260507055132 51 180 3.5 4.3 0.00 0.16 0.00 60 1015.9
20260507052131 51 180 3.5 4.3 0.00 0.16 0.00 60 1015.9
20260507051136 51 180 4.3 3.5 0.00 0.16 0.00 60 1015.9
20260507050131 50 157 3.5 3.5 0.00 0.16 0.00 60 1014.9
20260507044130 50 180 0.0 0.0 0.00 0.16 0.00 60 1014.9
20260507043135 49 180 3.5 3.5 0.00 0.16 0.00 61 1014.9
20260507040132 49 180 5.2 4.3 0.00 0.16 0.00 62 1014.9
20260507035131 49 157 2.6 3.5 0.00 0.16 0.00 62 1014.9
20260507034134 49 180 4.3 5.2 0.00 0.16 0.00 63 1014.9
20260507033132 49 135 5.2 3.5 0.00 0.16 0.00 62 1014.9
20260507030131 48 202 3.5 4.3 0.00 0.16 0.00 63 1013.9
20260507025132 48 180 3.5 3.5 0.00 0.16 0.00 62 1013.9
20260507024132 48 180 5.2 4.3 0.00 0.16 0.00 62 1013.9
20260507022131 49 157 5.2 6.1 0.00 0.16 0.00 63 1013.9
20260507020136 48 157 5.2 5.2 0.00 0.16 0.00 62 1013.9
20260507015131 48 157 4.3 4.3 0.00 0.16 0.00 62 1013.9
20260507014131 49 157 0.0 0.0 0.00 0.16 0.00 62 1013.9
20260507012136 49 180 4.3 4.3 0.00 0.16 0.00 62 1013.9
20260507011131 49 157 3.5 3.5 0.00 0.16 0.00 62 1013.9
20260507010130 49 202 3.5 3.5 0.00 0.16 0.00 62 1013.9
20260507004136 49 225 2.6 3.5 0.00 0.16 0.00 62 1013.9
20260507003131 49 157 7.8 8.7 0.00 0.16 0.00 61 1013.9
20260507001132 49 180 4.3 4.3 0.00 0.16 0.00 61 1013.9
20260506234135 50 180 2.6 3.5 0.00 0.16 0.00 60 1013.9
20260506232131 50 157 4.3 3.5 0.00 0.16 0.00 60 1013.9
20260506230137 50 180 4.3 5.2 0.00 0.16 0.00 59 1013.9
20260506224132 51 180 4.3 2.6 0.00 0.16 0.00 59 1013.9
20260506222132 51 157 2.6 4.3 0.00 0.16 0.00 59 1013.9
20260506221132 51 180 3.5 3.5 0.00 0.16 0.00 58 1012.9
20260506220131 51 180 5.2 5.2 0.00 0.16 0.00 58 1012.9
20260506212135 51 180 3.5 3.5 0.00 0.12 0.12 58 1012.9
20260506211131 51 225 1.7 2.6 0.00 0.12 0.12 57 1012.9
20260506204132 52 247 4.3 6.1 0.00 0.08 0.08 57 1012.9
20260506202136 52 270 7.0 7.0 0.00 0.08 0.08 58 1012.9
20260506195132 53 180 9.6 10.4 0.08 0.08 0.08 60 1011.9
20260506194131 54 225 6.1 7.8 0.08 0.08 0.08 59 1011.9
20260506193131 54 247 7.8 10.4 0.04 0.04 0.04 59 1011.9
20260506190136 55 270 3.5 3.5 0.00 0.00 0.00 51 1010.9
20260506185131 56 247 4.3 4.3 0.00 0.00 0.00 48 1010.9
20260506183135 57 180 5.2 3.5 0.00 0.00 0.00 40 1009.9
20260506182132 58 225 3.5 2.6 0.00 0.00 0.00 39 1009.9
20260506180132 58 225 4.3 3.5 0.00 0.00 0.00 34 1008.9
20260506175134 58 135 5.2 3.5 0.00 0.00 0.00 32 1008.9
20260506174131 58 270 7.8 7.0 0.00 0.00 0.00 30 1007.9
20260506173131 59 270 8.7 12.2 0.00 0.00 0.00 30 1007.9
20260506165135 72 180 4.3 2.6 0.00 0.00 0.00 18 1004.9
20260506164132 75 180 7.8 5.2 0.00 0.00 0.00 18 1004.9
20260506163133 79 135 6.1 6.1 0.00 0.00 0.00 17 1004.9
20260506162136 79 135 5.2 5.2 0.00 0.00 0.00 17 1004.9
20260506161132 79 157 5.2 7.0 0.00 0.00 0.00 17 1004.9
20260506160131 78 90 3.5 3.5 0.00 0.00 0.00 17 1004.9
20260506155131 77 90 2.6 2.6 0.00 0.00 0.00 17 1004.9
20260506153132 75 135 2.6 2.6 0.00 0.00 0.00 18 1005.9
20260506151135 72 90 1.7 3.5 0.00 0.00 0.00 18 1005.9
20260506145132 71 0 0.9 2.6 0.00 0.00 0.00 18 1005.9
20260506144134 71 0 3.5 3.5 0.00 0.00 0.00 20 1005.9
20260506141130 71 0 5.2 6.1 0.00 0.00 0.00 20 1006.9
20260506140131 72 22 4.3 3.5 0.00 0.00 0.00 18 1006.9
20260506134130 71 0 4.3 4.3 0.00 0.00 0.00 20 1006.9
20260506131131 74 22 5.2 3.5 0.00 0.00 0.00 18 1006.9
20260506130133 76 337 4.3 3.5 0.00 0.00 0.00 18 1007.9
20260506124134 73 337 4.3 5.2 0.00 0.00 0.00 18 1007.9
20260506122136 72 22 5.2 4.3 0.00 0.00 0.00 18 1007.9
20260506121133 74 0 4.3 3.5 0.00 0.00 0.00 18 1007.9
20260506115131 72 45 5.2 3.5 0.00 0.00 0.00 18 1007.9
20260506114135 72 315 4.3 3.5 0.00 0.00 0.00 18 1007.9
20260506113133 74 22 5.2 5.2 0.00 0.00 0.00 18 1008.9
20260506111130 74 315 3.5 2.6 0.00 0.00 0.00 18 1008.9
20260506110129 73 337 3.5 3.5 0.00 0.00 0.00 18 1008.9